Location: *
(55.6049°S, 142.1985°W)
Time: 00:19:45
(UTC+00:00)

Nadezhda 4 Rocket - Pass Details

Date: 12 May 2021
Orbit: 949 x 993 km, 82.9° (Epoch: 23 June)

Event Time Altitude Azimuth Distance (km) Brightness Sun altitude
Rises 14:04:13 0° 192° (SSW) 3,706 7.0 -26.4°
Reaches altitude 10° 14:06:44 10° 193° (SSW) 2,760 6.3 -26.0°
Maximum altitude 14:13:05 83° 278° (W) 1,008 3.9 -25.1°
Drops below altitude 10° 14:19:26 10° 5° (N) 2,758 6.4 -24.2°
Sets 14:21:57 0° 6° (N) 3,704 7.1 -23.9°
